| time (UTC) | temp F | wind direction | speed MPH | gust MPH | rain 1hr in | rain 24hr in | rain mn in | humidity % | barometer mb |
| 20260506061756 | 58 | 163 | 1.0 | 2.0 | 0.41 | 5.59 | 1.36 | 94 | 1009.0 |
| 20260506060856 | 58 | 115 | 0.0 | 2.0 | 0.63 | 5.59 | 1.36 | 94 | 1009.1 |
| 20260506050556 | 58 | 0 | 0.0 | 0.0 | 0.97 | 5.03 | 0.73 | 94 | 1009.3 |
| 20260506044756 | 58 | 0 | 0.0 | 0.0 | 1.50 | 4.62 | 0.26 | 94 | 1009.0 |
| 20260506042956 | 58 | 0 | 0.0 | 0.0 | 1.00 | 4.24 | 0.20 | 94 | 1008.7 |
| 20260506042056 | 58 | 0 | 0.0 | 0.0 | 1.00 | 4.24 | 0.20 | 94 | 1009.0 |
| 20260506040256 | 58 | 23 | 0.0 | 2.0 | 1.00 | 4.50 | 0.20 | 94 | 1009.0 |
| 20260506034456 | 58 | 0 | 0.0 | 0.0 | 0.00 | 3.57 | 0.20 | 93 | 1009.5 |
| 20260506033556 | 58 | 0 | 0.0 | 0.0 | 0.00 | 3.57 | 0.20 | 93 | 1009.5 |
| 20260506032657 | 58 | 0 | 0.0 | 0.0 | 0.00 | 3.57 | 0.20 | 93 | 1009.6 |
| 20260506031756 | 58 | 0 | 0.0 | 0.0 | 0.01 | 3.57 | 0.20 | 93 | 1009.7 |
| 20260506030857 | 58 | 0 | 0.0 | 0.0 | 0.01 | 3.57 | 0.20 | 93 | 1009.6 |
| 20260506025956 | 58 | 0 | 0.0 | 0.0 | 0.01 | 3.58 | 0.20 | 93 | 1010.0 |
| 20260506025057 | 58 | 0 | 0.0 | 0.0 | 0.04 | 3.58 | 0.20 | 93 | 1009.9 |
| 20260506024156 | 58 | 0 | 0.0 | 0.0 | 0.04 | 3.58 | 0.20 | 93 | 1010.0 |
| 20260506023256 | 58 | 0 | 0.0 | 0.0 | 0.04 | 3.61 | 0.20 | 93 | 1009.6 |
| 20260506022356 | 58 | 0 | 0.0 | 0.0 | 0.47 | 3.60 | 0.19 | 94 | 1009.3 |
| 20260506021457 | 58 | 163 | 0.0 | 2.0 | 0.47 | 3.61 | 0.19 | 93 | 1009.4 |
| 20260506020557 | 58 | 181 | 0.0 | 2.0 | 0.47 | 3.61 | 0.19 | 93 | 1009.3 |
| 20260506015657 | 58 | 0 | 0.0 | 0.0 | 0.47 | 3.64 | 0.19 | 93 | 1009.8 |
| 20260506013857 | 58 | 175 | 0.0 | 2.0 | 0.57 | 3.67 | 0.17 | 93 | 1009.7 |
| 20260506012957 | 58 | 158 | 0.0 | 2.0 | 0.57 | 3.67 | 0.17 | 93 | 1009.9 |
| 20260506012057 | 58 | 0 | 0.0 | 0.0 | 0.13 | 3.22 | 0.17 | 93 | 1010.0 |
| 20260506011157 | 58 | 0 | 0.0 | 0.0 | 0.64 | 3.27 | 0.17 | 93 | 1010.4 |
| 20260506010257 | 58 | 0 | 0.0 | 0.0 | 0.64 | 3.27 | 0.17 | 93 | 1010.3 |
| 20260506005357 | 58 | 0 | 0.0 | 0.0 | 0.63 | 3.28 | 0.15 | 93 | 1009.9 |
| 20260506004457 | 58 | 0 | 0.0 | 0.0 | 0.61 | 3.27 | 0.14 | 93 | 1010.3 |
| 20260506003557 | 58 | 0 | 0.0 | 0.0 | 0.52 | 3.24 | 0.05 | 93 | 1010.7 |
| 20260506002657 | 58 | 0 | 0.0 | 0.0 | 0.52 | 3.24 | 0.05 | 93 | 1011.0 |
| 20260506001757 | 58 | 0 | 0.0 | 0.0 | 0.51 | 3.24 | 0.04 | 93 | 1011.0 |
| 20260506000857 | 60 | 0 | 0.0 | 0.0 | 0.00 | 2.73 | 0.00 | 93 | 1010.8 |
| 20260505235957 | 60 | 0 | 0.0 | 0.0 | 0.00 | 2.73 | 0.00 | 93 | 1011.3 |
| 20260505235057 | 60 | 0 | 0.0 | 0.0 | 0.00 | 2.73 | 0.00 | 93 | 1011.0 |
| 20260505234157 | 60 | 0 | 0.0 | 0.0 | 0.00 | 2.73 | 0.00 | 93 | 1010.6 |
| 20260505233257 | 60 | 0 | 0.0 | 0.0 | 0.00 | 2.73 | 0.00 | 93 | 1010.4 |
| 20260505232357 | 60 | 0 | 0.0 | 0.0 | 0.00 | 2.73 | 0.00 | 93 | 1010.7 |
| 20260505231457 | 60 | 0 | 0.0 | 0.0 | 0.00 | 2.73 | 0.00 | 93 | 1011.1 |
| 20260505230557 | 60 | 0 | 0.0 | 0.0 | 0.00 | 2.73 | 0.00 | 93 | 1010.8 |
| 20260505225657 | 60 | 0 | 0.0 | 0.0 | 0.00 | 2.73 | 0.00 | 93 | 1011.0 |
| 20260505224757 | 60 | 0 | 0.0 | 0.0 | 0.00 | 2.73 | 0.00 | 93 | 1011.0 |
| 20260505223900 | 61 | 203 | 0.0 | 2.0 | 0.00 | 2.73 | 0.00 | 93 | 1011.0 |
| 20260505222957 | 61 | 187 | 1.0 | 4.0 | 0.00 | 2.73 | 0.00 | 93 | 1011.4 |
| 20260505222057 | 61 | 183 | 2.0 | 4.0 | 0.00 | 2.73 | 0.00 | 93 | 1011.4 |
| 20260505221158 | 61 | 166 | 0.0 | 2.0 | 0.00 | 2.73 | 0.00 | 93 | 1011.6 |
| 20260505215412 | 61 | 181 | 0.0 | 2.0 | 0.26 | 2.73 | 2.73 | 93 | 1011.4 |
| 20260505214458 | 61 | 181 | 0.0 | 2.0 | 0.26 | 2.73 | 2.73 | 93 | 1011.5 |
| 20260505213559 | 61 | 0 | 0.0 | 0.0 | 0.26 | 2.73 | 2.73 | 92 | 1011.6 |
| 20260505212657 | 61 | 181 | 0.0 | 2.0 | 0.26 | 2.73 | 2.73 | 92 | 1011.7 |
| 20260505211802 | 62 | 186 | 0.0 | 2.0 | 0.26 | 2.73 | 2.73 | 92 | 1011.4 |
| 20260505210857 | 62 | 158 | 0.0 | 2.0 | 0.17 | 2.62 | 2.62 | 92 | 1012.0 |
| 20260505205957 | 62 | 158 | 1.0 | 2.0 | 0.04 | 2.49 | 2.49 | 92 | 1012.0 |
| 20260505205105 | 62 | 0 | 0.0 | 0.0 | 0.01 | 2.47 | 2.47 | 92 | 1012.0 |
| 20260505203258 | 62 | 0 | 0.0 | 0.0 | 0.08 | 2.47 | 2.47 | 92 | 1012.0 |
| 20260505202357 | 62 | 0 | 0.0 | 0.0 | 0.18 | 2.47 | 2.47 | 92 | 1011.9 |
| 20260505201457 | 62 | 0 | 0.0 | 0.0 | 0.18 | 2.47 | 2.47 | 91 | 1011.8 |
| 20260505200559 | 62 | 0 | 0.0 | 0.0 | 0.17 | 2.46 | 2.46 | 91 | 1011.9 |
| 20260505195712 | 62 | 0 | 0.0 | 0.0 | 0.17 | 2.46 | 2.46 | 91 | 1011.8 |
| 20260505194757 | 62 | 179 | 0.0 | 2.0 | 0.14 | 2.43 | 2.43 | 90 | 1011.8 |
| 20260505193857 | 63 | 130 | 1.0 | 2.0 | 0.09 | 2.39 | 2.39 | 90 | 1011.7 |
| 20260505190257 | 63 | 0 | 0.0 | 0.0 | 0.00 | 2.29 | 2.29 | 88 | 1011.4 |
| 20260505184457 | 63 | 0 | 0.0 | 0.0 | 0.00 | 2.29 | 2.29 | 86 | 1011.4 |
| 20260505183601 | 64 | 0 | 0.0 | 0.0 | 0.00 | 2.29 | 2.29 | 85 | 1011.3 |
| 20260505182659 | 65 | 0 | 0.0 | 0.0 | 0.00 | 2.29 | 2.29 | 84 | 1011.6 |
| 20260505181800 | 65 | 23 | 0.0 | 2.0 | 0.00 | 2.29 | 2.29 | 84 | 1011.3 |
| 20260505180857 | 65 | 6 | 0.0 | 2.0 | 0.00 | 2.29 | 2.29 | 83 | 1011.2 |
| 20260505175957 | 65 | 1 | 0.0 | 2.0 | 0.00 | 2.29 | 2.29 | 82 | 1011.2 |
| 20260505175057 | 65 | 24 | 0.0 | 4.0 | 0.00 | 2.29 | 2.29 | 82 | 1011.4 |
| 20260505174157 | 65 | 34 | 2.0 | 4.0 | 0.00 | 2.29 | 2.29 | 82 | 1011.3 |
| 20260505173257 | 65 | 46 | 1.0 | 2.0 | 0.00 | 2.29 | 2.29 | 82 | 1011.3 |
| 20260505172357 | 66 | 22 | 0.0 | 2.0 | 0.00 | 2.29 | 2.29 | 82 | 1011.3 |
| 20260505171457 | 66 | 23 | 1.0 | 2.0 | 0.00 | 2.29 | 2.29 | 81 | 1011.3 |
| 20260505170557 | 66 | 48 | 0.0 | 2.0 | 0.00 | 2.29 | 2.29 | 81 | 1011.4 |
| 20260505165657 | 66 | 35 | 1.0 | 2.0 | 0.00 | 2.29 | 2.29 | 81 | 1011.2 |
| 20260505164758 | 67 | 27 | 0.0 | 2.0 | 0.00 | 2.29 | 2.29 | 81 | 1011.2 |
| 20260505163857 | 67 | 33 | 0.0 | 2.0 | 0.00 | 2.29 | 2.29 | 81 | 1011.3 |
| 20260505162957 | 67 | 5 | 0.0 | 2.0 | 0.00 | 2.29 | 2.29 | 82 | 1011.2 |
| 20260505162102 | 67 | 31 | 0.0 | 2.0 | 0.00 | 2.29 | 2.29 | 82 | 1011.2 |
| 20260505161159 | 66 | 38 | 1.0 | 2.0 | 0.00 | 2.29 | 2.29 | 83 | 1011.1 |
| 20260505160257 | 66 | 19 | 2.0 | 4.0 | 0.00 | 2.29 | 2.29 | 83 | 1011.1 |
| 20260505151759 | 65 | 31 | 1.0 | 7.0 | 0.00 | 2.29 | 2.29 | 88 | 1011.1 |
| 20260505150857 | 65 | 34 | 2.0 | 7.0 | 0.00 | 2.29 | 2.29 | 88 | 1011.2 |
| 20260505140557 | 65 | 23 | 0.0 | 2.0 | 0.01 | 2.29 | 2.29 | 92 | 1011.5 |
| 20260505130258 | 63 | 0 | 0.0 | 0.0 | 0.06 | 2.28 | 2.28 | 93 | 1011.7 |
| 20260505124457 | 63 | 1 | 0.0 | 2.0 | 0.54 | 2.26 | 2.26 | 93 | 1011.8 |
| 20260505123557 | 63 | 1 | 0.0 | 2.0 | 0.57 | 2.26 | 2.26 | 93 | 1011.8 |
| 20260505122657 | 62 | 1 | 0.0 | 2.0 | 0.57 | 2.26 | 2.26 | 93 | 1011.8 |
| 20260505120858 | 62 | 1 | 0.0 | 2.0 | 0.54 | 2.22 | 2.22 | 93 | 1012.2 |
| 20260505115957 | 61 | 106 | 0.0 | 8.0 | 0.58 | 2.21 | 2.22 | 93 | 1012.2 |
| 20260505115057 | 61 | 163 | 4.0 | 6.0 | 0.43 | 2.01 | 2.06 | 93 | 1012.0 |
| 20260505113257 | 61 | 158 | 0.0 | 2.0 | 0.19 | 1.69 | 1.69 | 93 | 1011.8 |
| 20260505111457 | 60 | 16 | 0.0 | 2.0 | 0.20 | 1.68 | 1.68 | 93 | 1012.1 |
| 20260505102058 | 60 | 0 | 0.0 | 0.0 | 0.38 | 1.48 | 1.48 | 92 | 1012.0 |
| 20260505101158 | 60 | 61 | 0.0 | 4.0 | 0.38 | 1.48 | 1.48 | 92 | 1011.9 |
| 20260505100257 | 59 | 352 | 0.0 | 2.0 | 0.26 | 1.33 | 1.35 | 92 | 1011.7 |
| 20260505095358 | 59 | 48 | 1.0 | 2.0 | 0.11 | 1.17 | 1.18 | 92 | 1012.3 |
| 20260505094458 | 60 | 139 | 0.0 | 2.0 | 0.13 | 1.15 | 1.15 | 92 | 1012.2 |
| 20260505093558 | 60 | 303 | 0.0 | 2.0 | 0.11 | 1.11 | 1.11 | 92 | 1012.3 |
| 20260505092658 | 60 | 226 | 0.0 | 2.0 | 0.09 | 1.10 | 1.11 | 92 | 1012.3 |
| 20260505085958 | 59 | 106 | 0.0 | 2.0 | 0.06 | 1.06 | 1.07 | 92 | 1012.0 |
| 20260505085058 | 59 | 172 | 0.0 | 2.0 | 0.05 | 1.05 | 1.05 | 92 | 1012.1 |
| 20260505084158 | 59 | 161 | 2.0 | 2.0 | 0.05 | 1.02 | 1.02 | 92 | 1012.0 |
| 20260505083258 | 58 | 107 | 0.0 | 2.0 | 0.14 | 1.00 | 1.00 | 92 | 1011.8 |
| 20260505081458 | 58 | 3 | 0.0 | 4.0 | 0.14 | 1.00 | 1.00 | 91 | 1011.8 |
| 20260505080558 | 58 | 359 | 2.0 | 4.0 | 0.14 | 1.00 | 1.00 | 92 | 1011.8 |
| 20260505072958 | 58 | 98 | 2.0 | 7.0 | 0.00 | 0.86 | 0.86 | 92 | 1012.0 |
| 20260505072058 | 57 | 169 | 2.0 | 6.0 | 0.00 | 0.86 | 0.86 | 92 | 1011.9 |
| 20260505071158 | 57 | 117 | 1.0 | 4.0 | 0.00 | 0.86 | 0.86 | 92 | 1011.6 |
| 20260505070258 | 57 | 89 | 0.0 | 2.0 | 0.00 | 0.86 | 0.86 | 92 | 1012.0 |